DW3649 Weather Reports


time (UTC)temp
C
wind
direction
speed
KPH
gust
KPH
rain 1hr
cm
rain 24hr
cm
rain mn
cm
humidity
%
barometer
mb
20260504081547 15 213 3.2 0.0 0.00 0.00 0.00 41 1018.1
20260504050021 11 60 1.6 0.0 0.00 0.00 0.00 60 1017.4
20260504044534 11 71 1.6 0.0 0.00 0.00 0.00 62 1017.3
20260504043020 10 69 0.0 0.0 0.00 0.00 0.00 64 1017.2
20260504041515 10 69 0.0 0.0 0.00 0.00 0.00 66 1017.2
20260504040014 9 69 0.0 0.0 0.00 0.00 0.00 66 1017.1
20260504034515 8 69 0.0 0.0 0.00 0.00 0.00 66 1017.0
20260504033012 9 69 0.0 0.0 0.00 0.00 0.00 64 1017.0
20260504031510 9 69 0.0 0.0 0.00 0.00 0.00 64 1016.9
20260504030009 9 69 0.0 0.0 0.00 0.00 0.00 63 1016.9
20260504024516 9 69 0.0 0.0 0.00 0.00 0.00 62 1016.9
20260504023007 10 69 0.0 0.0 0.00 0.00 0.00 62 1016.8
20260504021506 10 69 1.6 0.0 0.00 0.00 0.00 62 1016.8
20260504020012 10 63 1.6 0.0 0.00 0.00 0.00 61 1016.9
20260504014505 10 61 0.0 0.0 0.00 0.00 0.00 61 1017.0
20260504013003 10 61 0.0 0.0 0.00 0.00 0.00 60 1016.8
20260504011502 10 61 0.0 0.0 0.00 0.00 0.00 60 1016.9
20260504010002 10 61 0.0 0.0 0.00 0.00 0.00 59 1016.9
20260504004505 10 61 0.0 0.0 0.00 0.00 0.00 59 1016.9
20260504003100 10 61 1.6 0.0 0.00 0.00 0.00 59 1016.9
20260504001614 10 63 1.6 0.0 0.00 0.00 0.00 58 1016.8
20260504000100 10 40 0.0 0.0 0.00 0.00 0.00 60 1016.9
20260503234558 10 40 0.0 0.0 0.00 0.00 0.00 60 1016.9
20260503233057 10 40 0.0 0.0 0.00 0.00 0.00 60 1017.0
20260503231557 10 40 0.0 0.0 0.00 0.00 0.00 59 1017.1
20260503230056 10 39 0.0 0.0 0.00 0.00 0.00 59 1017.0
20260503224555 10 53 0.0 0.0 0.00 0.00 0.00 59 1016.9
20260503223054 10 59 1.6 0.0 0.00 0.00 0.00 59 1016.8
20260503221552 10 17 0.0 0.0 0.00 0.00 0.00 59 1017.0
20260503220106 10 10 0.0 0.0 0.00 0.00 0.00 58 1017.1
20260503214549 10 323 3.2 0.0 0.00 0.00 0.00 58 1017.1
20260503213049 11 315 3.2 0.0 0.00 0.00 0.00 57 1017.1
20260503211601 11 321 1.6 0.0 0.00 0.00 0.00 57 1017.1
20260503210046 11 300 1.6 0.0 0.00 0.00 0.00 58 1017.2
20260503204547 11 302 3.2 0.0 0.00 0.00 0.10 58 1017.3
20260503203042 11 318 4.8 0.0 0.00 0.00 0.10 58 1017.2
20260503201542 11 327 4.8 0.0 0.00 0.00 0.10 57 1017.3
20260503200041 11 284 6.4 0.0 0.00 0.00 0.10 56 1017.3
20260503194540 11 315 6.4 0.0 0.00 0.00 0.10 56 1017.3
20260503193047 11 291 6.4 0.0 0.00 0.00 0.10 55 1017.2
20260503191539 11 302 6.4 0.0 0.00 0.00 0.10 54 1017.2
20260503190043 11 315 6.4 0.0 0.00 0.00 0.10 54 1017.0
20260503184535 11 355 6.4 0.0 0.00 0.00 0.10 54 1016.9
20260503183039 11 326 4.8 0.0 0.00 0.00 0.10 55 1016.7
20260503181604 11 313 3.2 0.0 0.00 0.00 0.10 55 1016.5
20260503180031 11 336 3.2 0.0 0.00 0.00 0.10 54 1016.3
20260503174529 12 338 4.8 0.0 0.00 0.00 0.10 53 1016.1
20260503173042 12 296 3.2 0.0 0.00 0.00 0.10 52 1015.9
20260503171527 12 303 4.8 0.0 0.00 0.00 0.10 51 1015.9